sat.trackr.live / text

‹ back to catalog

STARLINK-37260

NORAD 68510 · 2026-068C

PAYLOAD ACTIVE UNKNOWN

§ Identity

Operator
Country
US
Launch date
2026-03-30
Launch site
AFETR
Launch vehicle
Mass (kg)
RCS (m²)

Purposes: comms

External: N2YO · Heavens-Above · Gunter

§ Orbital elements

Epoch: 2026-05-25T03:32:00.750624Z

Period
93.85 min
Inclination
53.1595°
Eccentricity
0.0001472
Mean motion
15.34408937 rev/d
Perigee alt
461.7 km
Apogee alt
463.7 km
Semi-major
6,840.8 km
B*
4.5218e-4
RAAN
131.0463°
Arg perigee
86.8484°
Mean anomaly
273.2686°
Rev number
869

§ Raw data

STARLINK-372601 68510U 26068C   26145.14723091  .00014936  00000+0  45218-3 0  99922 68510  53.1595 131.0463 0001472  86.8484 273.2686 15.34408937  8691

JSON: /api/v1/satellites/68510 · /tle

For live sub-satellite position, see the globe view (requires WebGL).

§ Visibility from observer

Set your observer location to see the next 7 days of passes ≥ 10°. The values pass through the URL so the page stays shareable.

No JS? Fill the form by hand. The geolocation button needs JavaScript.